11-09-2023, 00:00:09,    219,    0.0,   17.2,   0.00,   0.00, 1011.0,    0.2, -999.0
11-09-2023, 00:00:19,    219,    0.0,   17.3,   0.00,   0.00, 1011.0,    0.2, -999.0
11-09-2023, 00:00:29,    174,    0.0,   17.2,   0.00,   0.00, 1011.0,    0.2, -999.0
11-09-2023, 00:00:39,    193,    0.0,   17.2,   0.00,   0.00, 1011.0,    0.2, -999.0
11-09-2023, 00:00:49,    196,    0.0,   17.2,   0.00,   0.00, 1011.0,    0.2, -999.0
11-09-2023, 00:00:59,    198,    0.0,   17.3,   0.00,   0.00, 1011.0,    0.1, -999.0
11-09-2023, 00:01:09,    198,    0.0,   17.2,   0.00,   0.00, 1011.0,    0.2, -999.0
11-09-2023, 00:01:19,    199,    0.0,   17.3,   0.00,   0.00, 1011.0,    0.3, -999.0
11-09-2023, 00:01:29,    222,    1.3,   17.4,   0.00,   0.00, 1011.0,    0.4, -999.0
11-09-2023, 00:01:39,    222,    1.0,   17.3,   0.00,   0.00, 1011.1,    0.2, -999.0
11-09-2023, 00:01:49,    198,    0.2,   17.3,   0.00,   0.00, 1011.1,    0.3, -999.0
11-09-2023, 00:01:59,    198,    0.0,   17.2,   0.00,   0.00, 1011.0,    0.2, -999.0
11-09-2023, 00:02:09,    198,    0.0,   17.2,   0.00,   0.00, 1011.0,    0.4, -999.0
11-09-2023, 00:02:19,    199,    0.0,   17.2,   0.00,   0.00, 1011.0,    0.3, -999.0
11-09-2023, 00:02:29,    218,    0.0,   17.2,   0.00,   0.00, 1011.0,    0.1, -999.0
11-09-2023, 00:02:39,    205,    0.0,   17.2,   0.00,   0.00, 1011.0,    0.2, -999.0
11-09-2023, 00:02:48,    217,    0.0,   17.2,   0.00,   0.00, 1011.0,    0.2, -999.0
11-09-2023, 00:02:59,    212,    0.0,   17.2,   0.00,   0.00, 1011.0,    0.1, -999.0
11-09-2023, 00:03:09,    213,    0.0,   17.2,   0.00,   0.00, 1011.0,    0.3, -999.0
11-09-2023, 00:03:18,    212,    0.0,   17.2,   0.00,   0.00, 1011.0,    0.2, -999.0
11-09-2023, 00:03:28,    212,    0.0,   17.2,   0.00,   0.00, 1011.0,    0.2, -999.0
11-09-2023, 00:03:39,    207,    0.0,   17.2,   0.00,   0.00, 1011.0,    0.1, -999.0
11-09-2023, 00:03:49,    215,    0.0,   17.2,   0.00,   0.00, 1011.0,    0.2, -999.0
11-09-2023, 00:03:58,    207,    0.0,   17.2,   0.00,   0.00, 1011.0,    0.1, -999.0
11-09-2023, 00:04:08,    207,    0.0,   17.2,   0.00,   0.00, 1011.0,    0.3, -999.0
11-09-2023, 00:04:19,    207,    0.0,   17.2,   0.00,   0.00, 1011.0,    0.2, -999.0
11-09-2023, 00:04:28,    207,    0.0,   17.2,   0.00,   0.00, 1011.0,    0.1, -999.0
11-09-2023, 00:04:38,    208,    0.0,   17.2,   0.00,   0.00, 1011.0,    0.1, -999.0
11-09-2023, 00:04:48,    207,    0.0,   17.2,   0.00,   0.00, 1011.0,    0.3, -999.0
11-09-2023, 00:04:58,    207,    0.0,   17.2,   0.00,   0.00, 1011.0,    0.2, -999.0
11-09-2023, 00:05:08,    207,    0.0,   17.3,   0.00,   0.00, 1011.0,    0.1, -999.0
11-09-2023, 00:05:18,    208,    0.0,   17.2,   0.00,   0.00, 1011.0,    0.5, -999.0
11-09-2023, 00:05:28,    207,    0.0,   17.3,   0.00,   0.00, 1011.0,    0.1, -999.0
11-09-2023, 00:05:38,    208,    0.0,   17.3,   0.00,   0.00, 1011.0,    0.4, -999.0
11-09-2023, 00:05:48,    213,    0.0,   17.3,   0.00,   0.00, 1011.0,    0.1, -999.0
11-09-2023, 00:05:58,    213,    0.0,   17.3,   0.00,   0.00, 1011.0,    0.2, -999.0
11-09-2023, 00:06:08,    212,    0.0,   17.1,   0.00,   0.00, 1011.0,    0.2, -999.0
11-09-2023, 00:06:18,    211,    0.0,   17.3,   0.00,   0.00, 1011.0,    0.0, -999.0
11-09-2023, 00:06:28,    203,    0.6,   17.3,   0.00,   0.00, 1011.1,    0.0, -999.0
11-09-2023, 00:06:38,    203,    0.1,   17.3,   0.00,   0.00, 1011.1,    0.0, -999.0
11-09-2023, 00:06:48,    191,    0.0,   17.2,   0.00,   0.00, 1011.0,    0.1, -999.0
11-09-2023, 00:06:58,    210,    0.3,   17.2,   0.00,   0.00, 1011.0,    0.3, -999.0
11-09-2023, 00:07:08,    223,    1.2,   17.3,   0.00,   0.00, 1011.2,    0.3, -999.0
11-09-2023, 00:07:18,    208,    1.2,   17.2,   0.00,   0.00, 1011.1,    0.1, -999.0
11-09-2023, 00:07:28,    225,    0.0,   17.2,   0.00,   0.00, 1011.0,    0.0, -999.0
11-09-2023, 00:07:38,    178,    0.0,   17.1,   0.00,   0.00, 1011.0,    0.7, -999.0
11-09-2023, 00:07:48,    218,    0.0,   17.2,   0.00,   0.00, 1011.0,    0.2, -999.0
11-09-2023, 00:07:58,    220,    0.0,   17.1,   0.00,   0.00, 1011.0,    0.4, -999.0
11-09-2023, 00:08:08,    224,    0.0,   17.1,   0.00,   0.00, 1011.0,    0.1, -999.0
11-09-2023, 00:08:18,    260,    0.0,   17.2,   0.00,   0.00, 1011.0,    0.0, -999.0
11-09-2023, 00:08:28,    183,    0.0,   17.2,   0.00,   0.00, 1011.0,    0.0, -999.0
11-09-2023, 00:08:38,    226,    0.0,   17.1,   0.00,   0.00, 1011.0,    0.0, -999.0
11-09-2023, 00:08:48,    218,    0.0,   17.2,   0.00,   0.00, 1011.0,    0.0, -999.0
11-09-2023, 00:08:58,    227,    0.0,   17.2,   0.00,   0.00, 1011.0,    0.2, -999.0
11-09-2023, 00:09:08,    195,    0.0,   17.1,   0.00,   0.00, 1011.0,    0.1, -999.0
11-09-2023, 00:09:17,    218,    0.0,   17.2,   0.00,   0.00, 1011.0,    0.3, -999.0
11-09-2023, 00:09:28,    212,    0.0,   17.2,   0.00,   0.00, 1011.0,    0.3, -999.0
11-09-2023, 00:09:38,    264,    0.0,   17.1,   0.00,   0.00, 1011.0,    0.2, -999.0
11-09-2023, 00:09:48,    252,    1.9,   17.3,   0.00,   0.00, 1011.1,    0.2, -999.0
11-09-2023, 00:09:57,    204,    0.0,   17.2,   0.00,   0.00, 1011.0,    0.1, -999.0
11-09-2023, 00:10:08,    201,    0.4,   17.2,   0.00,   0.00, 1011.1,    0.3, -999.0
11-09-2023, 00:10:18,    213,    0.8,   17.3,   0.00,   0.00, 1011.1,    0.4, -999.0
11-09-2023, 00:10:27,    170,    1.2,   17.3,   0.00,   0.00, 1011.1,    0.4, -999.0
11-09-2023, 00:10:37,    206,    0.9,   17.2,   0.00,   0.00, 1011.1,    0.3, -999.0
11-09-2023, 00:10:48,    178,    0.0,   17.2,   0.00,   0.00, 1011.0,    0.3, -999.0
11-09-2023, 00:10:57,    223,    0.0,   17.1,   0.00,   0.00, 1011.0,    0.0, -999.0
11-09-2023, 00:11:07,    245,    0.0,   17.1,   0.00,   0.00, 1011.0,    0.1, -999.0
11-09-2023, 00:11:17,    163,    0.0,   17.2,   0.00,   0.00, 1011.0,    0.4, -999.0
11-09-2023, 00:11:27,    164,    0.0,   17.3,   0.00,   0.00, 1010.9,    0.1, -999.0
11-09-2023, 00:11:37,    167,    0.0,   17.2,   0.00,   0.00, 1010.9,    0.2, -999.0
11-09-2023, 00:11:47,    174,    0.0,   17.2,   0.00,   0.00, 1011.0,    0.2, -999.0
11-09-2023, 00:11:57,    175,    0.0,   17.1,   0.00,   0.00, 1011.0,    0.0, -999.0
11-09-2023, 00:12:07,    199,    0.0,   17.2,   0.00,   0.00, 1011.0,    0.3, -999.0
11-09-2023, 00:12:18,    203,    0.0,   17.2,   0.00,   0.00, 1011.0,    0.1, -999.0
11-09-2023, 00:12:27,    211,    0.0,   17.2,   0.00,   0.00, 1010.9,    0.1, -999.0
11-09-2023, 00:12:37,    192,    0.0,   17.2,   0.00,   0.00, 1011.0,    0.2, -999.0
11-09-2023, 00:12:47,    181,    0.0,   17.1,   0.00,   0.00, 1011.0,    0.2, -999.0
11-09-2023, 00:12:57,    215,    1.4,   17.2,   0.00,   0.00, 1011.0,    0.3, -999.0
11-09-2023, 00:13:07,    222,    1.1,   17.3,   0.00,   0.00, 1011.1,    0.3, -999.0
11-09-2023, 00:13:17,    223,    0.4,   17.2,   0.00,   0.00, 1011.1,    0.3, -999.0
11-09-2023, 00:13:27,    225,    0.5,   17.2,   0.00,   0.00, 1011.1,    0.2, -999.0
11-09-2023, 00:13:37,    208,    0.8,   17.2,   0.00,   0.00, 1011.0,    0.5, -999.0
11-09-2023, 00:13:47,    211,    3.4,   17.3,   0.00,   0.00, 1011.1,    0.3, -999.0
11-09-2023, 00:13:57,    222,    1.8,   17.3,   0.00,   0.00, 1011.1,    0.2, -999.0
11-09-2023, 00:14:07,    207,    0.2,   17.2,   0.00,   0.00, 1011.0,    0.1, -999.0
11-09-2023, 00:14:17,    207,    0.0,   17.1,   0.00,   0.00, 1011.0,    0.2, -999.0
11-09-2023, 00:14:27,    199,    0.0,   17.2,   0.00,   0.00, 1011.0,    0.2, -999.0
11-09-2023, 00:14:37,    207,    0.0,   17.1,   0.00,   0.00, 1011.0,    0.3, -999.0
11-09-2023, 00:14:47,    207,    0.0,   17.1,   0.00,   0.00, 1011.0,    0.2, -999.0
11-09-2023, 00:14:57,    205,    0.0,   17.2,   0.00,   0.00, 1011.0,    0.2, -999.0
11-09-2023, 00:15:07,    209,    0.5,   17.2,   0.00,   0.00, 1011.1,    0.4, -999.0
11-09-2023, 00:15:17,    225,    0.7,   17.1,   0.00,   0.00, 1011.1,    0.3, -999.0
11-09-2023, 00:15:27,    227,    0.0,   17.1,   0.00,   0.00, 1010.9,    0.2, -999.0
11-09-2023, 00:15:37,    199,    0.0,   17.1,   0.00,   0.00, 1010.9,    0.2, -999.0
11-09-2023, 00:15:46,    208,    1.1,   17.2,   0.00,   0.00, 1011.0,    0.3, -999.0
11-09-2023, 00:15:57,    190,    0.7,   17.3,   0.00,   0.00, 1011.1,    0.4, -999.0
11-09-2023, 00:16:07,    190,    0.0,   17.2,   0.00,   0.00, 1010.9,    0.2, -999.0
11-09-2023, 00:16:16,    238,    0.5,   17.1,   0.00,   0.00, 1011.0,    0.1, -999.0
11-09-2023, 00:16:26,    190,    0.0,   17.2,   0.00,   0.00, 1011.0,    0.4, -999.0
11-09-2023, 00:16:37,    235,    0.5,   17.2,   0.00,   0.00, 1011.0,    0.3, -999.0
11-09-2023, 00:16:47,    236,    0.9,   17.3,   0.00,   0.00, 1011.0,    0.5, -999.0
11-09-2023, 00:16:56,    226,    0.5,   17.2,   0.00,   0.00, 1011.0,    0.3, -999.0
11-09-2023, 00:17:06,    223,    0.0,   17.2,   0.00,   0.00, 1011.0,    0.3, -999.0
11-09-2023, 00:17:17,    222,    0.0,   17.2,   0.00,   0.00, 1010.9,    0.3, -999.0
11-09-2023, 00:17:26,    233,    0.0,   17.2,   0.00,   0.00, 1010.9,    0.2, -999.0
11-09-2023, 00:17:36,    239,    2.2,   17.2,   0.00,   0.00, 1011.1,    0.2, -999.0
11-09-2023, 00:17:47,    227,    2.7,   17.3,   0.00,   0.00, 1011.1,    0.2, -999.0
11-09-2023, 00:17:56,    234,    1.2,   17.1,   0.00,   0.00, 1011.1,    0.1, -999.0
11-09-2023, 00:18:06,    235,    0.0,   17.1,   0.00,   0.00, 1010.9,    0.1, -999.0
11-09-2023, 00:18:16,    238,    0.0,   17.2,   0.00,   0.00, 1011.0,    0.1, -999.0
11-09-2023, 00:18:26,    234,    0.0,   17.1,   0.00,   0.00, 1011.0,    0.2, -999.0
11-09-2023, 00:18:36,    225,    0.0,   17.2,   0.00,   0.00, 1010.9,    0.2, -999.0
11-09-2023, 00:18:46,    213,    0.1,   17.2,   0.00,   0.00, 1011.0,    0.2, -999.0
11-09-2023, 00:18:56,    194,    0.0,   17.2,   0.00,   0.00, 1011.0,    0.3, -999.0
11-09-2023, 00:19:06,    201,    0.7,   17.2,   0.00,   0.00, 1011.1,    0.1, -999.0
11-09-2023, 00:19:16,    186,    0.1,   17.2,   0.00,   0.00, 1011.0,    0.2, -999.0
11-09-2023, 00:19:26,    191,    0.5,   17.2,   0.00,   0.00, 1011.0,    0.2, -999.0
11-09-2023, 00:19:36,    199,    0.7,   17.2,   0.00,   0.00, 1011.0,    0.2, -999.0
11-09-2023, 00:19:46,    184,    0.4,   17.2,   0.00,   0.00, 1011.0,    0.4, -999.0
11-09-2023, 00:19:56,    228,    0.9,   17.2,   0.00,   0.00, 1011.1,    0.2, -999.0
11-09-2023, 00:20:06,    220,    2.0,   17.3,   0.00,   0.00, 1011.1,    0.5, -999.0
11-09-2023, 00:20:16,    228,    1.1,   17.1,   0.00,   0.00, 1011.1,    0.3, -999.0
11-09-2023, 00:20:26,    219,    0.8,   17.2,   0.00,   0.00, 1011.1,    0.3, -999.0
11-09-2023, 00:20:36,    241,    0.6,   17.2,   0.00,   0.00, 1011.0,    0.2, -999.0
11-09-2023, 00:20:46,    239,    0.0,   17.0,   0.00,   0.00, 1011.0,    0.3, -999.0
11-09-2023, 00:20:56,    248,    0.0,   17.2,   0.00,   0.00, 1010.9,    0.3, -999.0
11-09-2023, 00:21:06,    223,    0.9,   17.1,   0.00,   0.00, 1011.0,    0.3, -999.0
11-09-2023, 00:21:16,    186,    1.5,   17.2,   0.00,   0.00, 1011.1,    0.3, -999.0
11-09-2023, 00:21:26,    187,    0.2,   17.2,   0.00,   0.00, 1011.1,    0.3, -999.0
11-09-2023, 00:21:36,    199,    0.2,   17.2,   0.00,   0.00, 1011.1,    0.1, -999.0
11-09-2023, 00:21:46,    193,    0.0,   17.2,   0.00,   0.00, 1011.0,    0.3, -999.0
11-09-2023, 00:21:56,    192,    0.0,   17.1,   0.00,   0.00, 1011.0,    0.3, -999.0
11-09-2023, 00:22:06,    221,    0.2,   17.1,   0.00,   0.00, 1011.0,    0.1, -999.0
11-09-2023, 00:22:15,    227,    1.4,   17.3,   0.00,   0.00, 1011.1,    0.3, -999.0
11-09-2023, 00:22:26,    221,    1.2,   17.2,   0.00,   0.00, 1011.1,    0.4, -999.0
11-09-2023, 00:22:36,    222,    0.0,   17.2,   0.00,   0.00, 1011.0,    0.2, -999.0
11-09-2023, 00:22:45,    223,    0.0,   17.1,   0.00,   0.00, 1011.0,    0.2, -999.0
11-09-2023, 00:22:55,    224,    0.0,   17.1,   0.00,   0.00, 1010.9,    0.2, -999.0
11-09-2023, 00:23:06,    223,    0.0,   17.1,   0.00,   0.00, 1011.0,    0.3, -999.0
11-09-2023, 00:23:16,    202,    0.0,   17.1,   0.00,   0.00, 1011.0,    0.5, -999.0
11-09-2023, 00:23:25,    204,    1.5,   17.2,   0.00,   0.00, 1011.1,    0.0, -999.0
11-09-2023, 00:23:36,    219,    3.7,   17.2,   0.00,   0.00, 1011.1,    0.4, -999.0
11-09-2023, 00:23:46,    201,    5.1,   17.2,   0.00,   0.00, 1011.1,    0.1, -999.0
11-09-2023, 00:23:55,    206,    2.2,   17.1,   0.00,   0.00, 1011.1,    0.3, -999.0
11-09-2023, 00:24:05,    206,    3.3,   17.1,   0.00,   0.00, 1011.1,    0.4, -999.0
11-09-2023, 00:24:16,    205,    3.4,   17.2,   0.00,   0.00, 1011.1,    0.3, -999.0
11-09-2023, 00:24:25,    199,    0.3,   17.2,   0.00,   0.00, 1011.1,    0.3, -999.0
11-09-2023, 00:24:35,    214,    1.2,   17.1,   0.00,   0.00, 1011.1,    0.3, -999.0
11-09-2023, 00:24:45,    217,    1.1,   17.1,   0.00,   0.00, 1011.1,    0.3, -999.0
11-09-2023, 00:24:55,    218,    0.8,   17.1,   0.00,   0.00, 1011.0,    0.3, -999.0
11-09-2023, 00:25:05,    228,    0.8,   17.1,   0.00,   0.00, 1011.1,    0.4, -999.0
11-09-2023, 00:25:15,    219,    0.0,   17.1,   0.00,   0.00, 1011.0,    0.5, -999.0
11-09-2023, 00:25:25,    221,    0.0,   17.0,   0.00,   0.00, 1011.0,    0.2, -999.0
11-09-2023, 00:25:35,    211,    0.0,   17.1,   0.00,   0.00, 1011.0,    0.3, -999.0
11-09-2023, 00:25:45,    207,    0.0,   17.1,   0.00,   0.00, 1010.9,    0.1, -999.0
11-09-2023, 00:25:55,    207,    0.0,   17.0,   0.00,   0.00, 1010.9,    0.4, -999.0
11-09-2023, 00:26:05,    207,    0.0,   17.1,   0.00,   0.00, 1010.9,    0.1, -999.0
11-09-2023, 00:26:15,    258,    0.2,   17.1,   0.00,   0.00, 1010.9,    0.3, -999.0
11-09-2023, 00:26:25,    233,    0.3,   17.1,   0.00,   0.00, 1011.0,    0.2, -999.0
11-09-2023, 00:26:35,    230,    0.0,   17.1,   0.00,   0.00, 1010.9,    0.4, -999.0
11-09-2023, 00:26:45,    125,    0.2,   17.1,   0.00,   0.00, 1010.9,    0.2, -999.0
11-09-2023, 00:26:55,    199,    0.6,   17.2,   0.00,   0.00, 1011.0,    0.4, -999.0
11-09-2023, 00:27:05,    179,    0.7,   17.2,   0.00,   0.00, 1011.0,    0.3, -999.0
11-09-2023, 00:27:15,    179,    0.0,   17.1,   0.00,   0.00, 1010.9,    0.2, -999.0
11-09-2023, 00:27:25,    212,    0.0,   17.1,   0.00,   0.00, 1010.9,    0.1, -999.0
11-09-2023, 00:27:35,    182,    0.3,   17.2,   0.00,   0.00, 1011.0,    0.3, -999.0
11-09-2023, 00:27:45,    204,    1.3,   17.2,   0.00,   0.00, 1011.0,    0.3, -999.0
11-09-2023, 00:27:55,    242,    0.3,   17.2,   0.00,   0.00, 1011.0,    0.3, -999.0
11-09-2023, 00:28:05,    242,    0.0,   17.2,   0.00,   0.00, 1010.9,    0.5, -999.0
11-09-2023, 00:28:15,    242,    0.0,   17.1,   0.00,   0.00, 1010.8,    0.2, -999.0
11-09-2023, 00:28:25,    242,    0.0,   17.1,   0.00,   0.00, 1010.9,    0.1, -999.0
11-09-2023, 00:28:35,    242,    0.0,   17.1,   0.00,   0.00, 1010.9,    0.1, -999.0
11-09-2023, 00:28:45,    175,    0.0,   17.1,   0.00,   0.00, 1010.9,    0.3, -999.0
11-09-2023, 00:28:55,    175,    0.1,   17.1,   0.00,   0.00, 1010.9,    0.5, -999.0
11-09-2023, 00:29:05,    174,    0.0,   17.1,   0.00,   0.00, 1010.9,    0.4, -999.0
11-09-2023, 00:29:14,    174,    0.0,   17.1,   0.00,   0.00, 1010.9,    0.2, -999.0
11-09-2023, 00:29:25,    175,    0.0,   17.2,   0.00,   0.00, 1010.8,    0.0, -999.0
11-09-2023, 00:29:35,    183,    0.0,   17.2,   0.00,   0.00, 1010.9,    0.2, -999.0
11-09-2023, 00:29:44,    184,    0.0,   17.0,   0.00,   0.00, 1010.8,    0.1, -999.0
11-09-2023, 00:29:54,    195,    0.0,   17.2,   0.00,   0.00, 1010.9,    0.2, -999.0
11-09-2023, 00:30:05,    197,    0.0,   17.2,   0.00,   0.00, 1010.9,    0.3, -999.0
11-09-2023, 00:30:14,    274,    0.9,   17.1,   0.00,   0.00, 1010.9,    0.1, -999.0
11-09-2023, 00:30:24,    198,    2.7,   17.2,   0.00,   0.00, 1010.9,    0.3, -999.0
11-09-2023, 00:30:35,    238,    0.5,   17.1,   0.00,   0.00, 1010.9,    0.0, -999.0
11-09-2023, 00:30:44,    233,    0.5,   17.2,   0.00,   0.00, 1010.9,    0.2, -999.0
11-09-2023, 00:30:54,    191,    0.3,   17.2,   0.00,   0.00, 1010.9,    0.2, -999.0
11-09-2023, 00:31:04,    175,    0.0,   17.1,   0.00,   0.00, 1010.9,    0.2, -999.0
11-09-2023, 00:31:15,    219,    0.2,   17.1,   0.00,   0.00, 1010.9,    0.4, -999.0
11-09-2023, 00:31:24,    215,    0.8,   17.1,   0.00,   0.00, 1010.9,    0.1, -999.0
11-09-2023, 00:31:34,    216,    0.1,   17.1,   0.00,   0.00, 1010.9,    0.2, -999.0
11-09-2023, 00:31:44,    216,    0.0,   17.0,   0.00,   0.00, 1010.8,    0.2, -999.0
11-09-2023, 00:31:54,    254,    0.2,   17.1,   0.00,   0.00, 1010.9,    0.4, -999.0
11-09-2023, 00:32:04,    159,    0.0,   17.1,   0.00,   0.00, 1010.9,    0.2, -999.0
11-09-2023, 00:32:14,    195,    0.4,   17.1,   0.00,   0.00, 1010.9,    0.5, -999.0
11-09-2023, 00:32:24,    195,    0.2,   17.1,   0.00,   0.00, 1010.9,    0.1, -999.0
11-09-2023, 00:32:34,    195,    0.0,   17.1,   0.00,   0.00, 1010.8,    0.2, -999.0
11-09-2023, 00:32:44,    229,    0.0,   17.1,   0.00,   0.00, 1010.8,    0.3, -999.0
11-09-2023, 00:32:54,    229,    0.0,   17.1,   0.00,   0.00, 1010.9,    0.2, -999.0
11-09-2023, 00:33:04,    231,    1.0,   17.1,   0.00,   0.00, 1010.9,    0.1, -999.0
11-09-2023, 00:33:14,    213,    2.9,   17.2,   0.00,   0.00, 1011.0,    0.2, -999.0
11-09-2023, 00:33:24,    219,    0.9,   17.2,   0.00,   0.00, 1010.9,    0.3, -999.0
11-09-2023, 00:33:34,    190,    0.7,   17.2,   0.00,   0.00, 1011.0,    0.4, -999.0
11-09-2023, 00:33:44,    201,    0.9,   17.2,   0.00,   0.00, 1011.0,    0.5, -999.0
11-09-2023, 00:33:54,    209,    0.2,   17.1,   0.00,   0.00, 1010.9,    0.2, -999.0
11-09-2023, 00:34:04,    215,    0.5,   17.1,   0.00,   0.00, 1010.9,    0.2, -999.0
11-09-2023, 00:34:14,    230,    0.8,   17.1,   0.00,   0.00, 1011.0,    0.2, -999.0
11-09-2023, 00:34:24,    231,    0.3,   17.3,   0.00,   0.00, 1010.8,    0.2, -999.0
11-09-2023, 00:34:34,    230,    0.0,   17.1,   0.00,   0.00, 1010.8,    0.2, -999.0
11-09-2023, 00:34:44,    231,    0.0,   17.1,   0.00,   0.00, 1010.8,    0.1, -999.0
11-09-2023, 00:34:54,    231,    0.0,   17.0,   0.00,   0.00, 1010.8,    0.2, -999.0
11-09-2023, 00:35:03,    231,    0.0,   17.0,   0.00,   0.00, 1010.8,    0.2, -999.0
11-09-2023, 00:35:14,    231,    0.0,   17.1,   0.00,   0.00, 1010.8,    0.2, -999.0
11-09-2023, 00:35:24,    231,    0.0,   17.0,   0.00,   0.00, 1010.8,    0.1, -999.0
11-09-2023, 00:35:34,    249,    1.6,   17.1,   0.00,   0.00, 1010.9,    0.3, -999.0
11-09-2023, 00:35:44,    222,    0.6,   17.2,   0.00,   0.00, 1010.9,    0.3, -999.0
11-09-2023, 00:35:54,    211,    0.2,   17.1,   0.00,   0.00, 1010.9,    0.3, -999.0
11-09-2023, 00:36:04,    213,    0.7,   17.1,   0.00,   0.00, 1011.0,    0.2, -999.0
11-09-2023, 00:36:13,    196,    1.7,   17.2,   0.00,   0.00, 1010.9,    0.1, -999.0
11-09-2023, 00:36:24,    244,    2.0,   17.2,   0.00,   0.00, 1010.9,    0.4, -999.0
11-09-2023, 00:36:34,    237,    2.8,   17.2,   0.00,   0.00, 1010.9,    0.2, -999.0
11-09-2023, 00:36:43,    230,    2.2,   17.1,   0.00,   0.00, 1010.9,    0.3, -999.0
11-09-2023, 00:36:53,    252,    1.3,   17.2,   0.00,   0.00, 1010.9,    0.5, -999.0
11-09-2023, 00:37:04,    249,    0.3,   17.1,   0.00,   0.00, 1010.8,    0.3, -999.0
11-09-2023, 00:37:13,    249,    0.0,   17.0,   0.00,   0.00, 1010.8,    0.2, -999.0
11-09-2023, 00:37:23,    216,    0.1,   17.1,   0.00,   0.00, 1010.9,    0.1, -999.0
11-09-2023, 00:37:34,    212,    0.3,   17.1,   0.00,   0.00, 1010.9,    0.1, -999.0
11-09-2023, 00:37:43,    212,    0.0,   17.0,   0.00,   0.00, 1010.8,    0.1, -999.0
11-09-2023, 00:37:53,    211,    0.0,   17.1,   0.00,   0.00, 1010.8,    0.3, -999.0
11-09-2023, 00:38:03,    210,    0.2,   17.1,   0.00,   0.00, 1010.8,    0.2, -999.0
11-09-2023, 00:38:14,    210,    0.3,   17.1,   0.00,   0.00, 1010.8,    0.3, -999.0
11-09-2023, 00:38:23,    199,    0.0,   17.0,   0.00,   0.00, 1010.7,    0.2, -999.0
11-09-2023, 00:38:33,    217,    0.0,   17.0,   0.00,   0.00, 1010.8,    0.2, -999.0
11-09-2023, 00:38:43,    249,    0.3,   17.1,   0.00,   0.00, 1010.9,    0.3, -999.0
11-09-2023, 00:38:53,    244,    1.7,   17.1,   0.00,   0.00, 1010.9,    0.3, -999.0
11-09-2023, 00:39:03,    244,    0.2,   17.1,   0.00,   0.00, 1010.9,    0.3, -999.0
11-09-2023, 00:39:13,    198,    0.8,   17.2,   0.00,   0.00, 1010.8,    0.3, -999.0
11-09-2023, 00:39:23,    220,    2.4,   17.1,   0.00,   0.00, 1010.9,    0.2, -999.0
11-09-2023, 00:39:33,    237,    3.5,   17.2,   0.00,   0.00, 1010.9,    0.2, -999.0
11-09-2023, 00:39:43,    237,    3.0,   17.1,   0.00,   0.00, 1010.9,    0.2, -999.0
11-09-2023, 00:39:53,    232,    1.8,   17.1,   0.00,   0.00, 1010.9,    0.3, -999.0
11-09-2023, 00:40:03,    231,    0.1,   17.1,   0.00,   0.00, 1010.8,    0.3, -999.0
11-09-2023, 00:40:13,    221,    0.2,   17.0,   0.00,   0.00, 1010.8,    0.3, -999.0
11-09-2023, 00:40:23,    190,    0.3,   17.0,   0.00,   0.00, 1010.8,    0.2, -999.0
11-09-2023, 00:40:33,    218,    1.3,   17.1,   0.00,   0.00, 1010.9,    0.2, -999.0
11-09-2023, 00:40:43,    250,    1.4,   17.1,   0.00,   0.00, 1010.9,    0.4, -999.0
11-09-2023, 00:40:53,    249,    2.2,   17.1,   0.00,   0.00, 1010.9,    0.3, -999.0
11-09-2023, 00:41:03,    241,    1.4,   17.0,   0.00,   0.00, 1010.9,    0.2, -999.0
11-09-2023, 00:41:13,    243,    0.6,   17.1,   0.00,   0.00, 1010.8,    0.2, -999.0
11-09-2023, 00:41:23,    241,    0.0,   17.0,   0.00,   0.00, 1010.8,    0.3, -999.0
11-09-2023, 00:41:33,    241,    0.1,   17.0,   0.00,   0.00, 1010.8,    0.2, -999.0
11-09-2023, 00:41:43,    236,    0.0,   17.0,   0.00,   0.00, 1010.8,    0.2, -999.0
11-09-2023, 00:41:53,    236,    0.0,   17.0,   0.00,   0.00, 1010.8,    0.1, -999.0
11-09-2023, 00:42:03,    236,    0.0,   16.9,   0.00,   0.00, 1010.8,    0.2, -999.0
11-09-2023, 00:42:13,    214,    0.9,   17.0,   0.00,   0.00, 1010.9,    0.3, -999.0
11-09-2023, 00:42:23,    189,    0.2,   17.0,   0.00,   0.00, 1010.8,    0.4, -999.0
11-09-2023, 00:42:32,    218,    1.0,   17.1,   0.00,   0.00, 1010.9,    0.2, -999.0
11-09-2023, 00:42:43,    175,    1.2,   17.1,   0.00,   0.00, 1010.9,    0.3, -999.0
11-09-2023, 00:42:53,    254,    0.3,   17.0,   0.00,   0.00, 1010.8,    0.1, -999.0
11-09-2023, 00:43:02,    244,    0.0,   16.9,   0.00,   0.00, 1010.8,    0.2, -999.0
11-09-2023, 00:43:12,    241,    0.0,   16.9,   0.00,   0.00, 1010.8,    0.3, -999.0
11-09-2023, 00:43:23,    227,    0.4,   17.0,   0.00,   0.00, 1010.9,    0.2, -999.0
11-09-2023, 00:43:33,    222,    0.1,   17.0,   0.00,   0.00, 1010.8,    0.3, -999.0
11-09-2023, 00:43:42,    226,    0.4,   16.9,   0.00,   0.00, 1010.8,    0.2, -999.0
11-09-2023, 00:43:52,    226,    0.5,   17.0,   0.00,   0.00, 1010.8,    0.1, -999.0
11-09-2023, 00:44:03,    226,    0.0,   17.0,   0.00,   0.00, 1010.8,    0.2, -999.0
11-09-2023, 00:44:12,    226,    0.0,   17.0,   0.00,   0.00, 1010.7,    0.2, -999.0
11-09-2023, 00:44:22,    226,    0.0,   17.0,   0.00,   0.00, 1010.7,    0.3, -999.0
11-09-2023, 00:44:32,    226,    0.0,   17.0,   0.00,   0.00, 1010.7,    0.3, -999.0
11-09-2023, 00:44:42,    226,    0.0,   17.0,   0.00,   0.00, 1010.7,    0.3, -999.0
11-09-2023, 00:44:52,    245,    0.2,   17.0,   0.00,   0.00, 1010.8,    0.2, -999.0
11-09-2023, 00:45:02,    201,    1.6,   17.1,   0.00,   0.00, 1010.9,    0.2, -999.0
11-09-2023, 00:45:12,    201,    0.1,   17.0,   0.00,   0.00, 1010.8,    0.2, -999.0
11-09-2023, 00:45:22,    206,    0.0,   16.9,   0.00,   0.00, 1010.7,    0.2, -999.0
11-09-2023, 00:45:32,    208,    0.0,   16.9,   0.00,   0.00, 1010.8,    0.2, -999.0
11-09-2023, 00:45:42,    272,    0.1,   17.0,   0.00,   0.00, 1010.7,    0.2, -999.0
11-09-2023, 00:45:52,    213,    0.0,   17.0,   0.00,   0.00, 1010.7,    0.2, -999.0
11-09-2023, 00:46:02,    213,    0.0,   16.9,   0.00,   0.00, 1010.7,    0.2, -999.0
11-09-2023, 00:46:12,    199,    0.0,   16.9,   0.00,   0.00, 1010.7,    0.2, -999.0
11-09-2023, 00:46:22,    198,    0.0,   16.9,   0.00,   0.00, 1010.7,    0.2, -999.0
11-09-2023, 00:46:32,    218,    0.0,   16.9,   0.00,   0.00, 1010.7,    0.1, -999.0
11-09-2023, 00:46:42,    247,    1.7,   16.9,   0.00,   0.00, 1010.8,    0.3, -999.0
11-09-2023, 00:46:52,    224,    1.5,   17.0,   0.00,   0.00, 1010.8,    0.4, -999.0